Temperature
16 16 16 16 16 15 15 15 15 15 15 15 15 15 15 15 15 15 15 15 15 15 15 15 15 15 15 15 15 15 15 15 15 15 14 14 14 14 14 14 14 15 15
16 16 16 16 15 15 15 15 15 15 15 15 15 15 15 15 15 15 15 15 15 15 15 15 15 15 15 15 15 14 15 14 14 14 14 14 14 14 14 14 14 14 14
16 16 16 16 15 15 15 15 15 15 15 15 15 15 15 15 15 15 15 15 15 14 14 14 14 14 14 14 14 14 14 14 14 14 14 14 14 14 14 14 14 14 14
16 16 16 15 15 15 15 15 15 15 15 15 15 14 14 14 14 14 14 14 14 14 14 14 14 14 14 14 14 14 14 14 14 14 14 14 14 14 14 14 14 14 14
16 16 16 15 15 15 15 15 15 15 15 14 14 14 14 14 14 14 14 14 14 14 14 14 14 14 14 14 14 14 14 14 14 14 14 14 14 13 13 13 13 13 13
16 16 16 15 15 15 15 15 15 15 14 14 14 14 14 14 14 14 14 14 14 14 14 13 14 14 14 13 13 13 13 13 13 13 14 13 13 13 13 13 13 13 13
16 16 15 15 15 15 15 15 15 14 14 14 14 14 13 13 13 13 13 13 13 13 13 13 13 13 13 13 13 13 13 13 13 13 13 13 13 13 13 13 13 13 12
16 16 15 15 15 15 15 15 15 14 14 14 14 14 13 13 13 13 13 13 13 13 13 13 13 13 13 13 13 13 13 13 13 13 13 13 13 13 12 12 12 12 12
16 16 15 15 15 15 15 15 15 14 14 14 14 14 14 13 13 13 13 13 13 13 13 13 13 13 13 13 13 13 13 13 13 13 13 12 12 12 12 12 12 12 12
15 15 15 15 15 15 15 15 15 14 14 14 14 14 14 14 13 12 12 12 12 12 13 13 12 12 12 12 12 12 13 13 12 12 12 12 12 12 12 12 12 12 12
15 15 15 15 15 15 15 15 15 14 14 14 14 14 14 14 14 13 12 12 12 12 12 12 12 12 12 12 12 12 12 12 12 12 12 12 12 12 12 12 11 11 11
15 15 15 15 15 15 15 15 15 15 15 14 14 14 14 14 14 14 13 12 12 12 12 12 12 12 12 12 12 12 12 12 12 12 12 12 12 12 11 11 11 11 11
15 15 15 15 15 15 15 15 15 15 15 14 14 14 14 14 14 14 14 13 12 12 11 12 12 12 12 12 12 12 12 12 12 12 12 11 11 11 11 11 11 11 11
15 15 15 15 15 15 15 15 15 15 15 15 14 14 14 14 14 14 14 13 12 12 11 11 11 12 12 12 12 12 12 12 12 12 11 11 11 11 11 11 11 11 10
15 15 15 15 15 15 15 15 15 15 15 15 15 15 14 14 14 14 14 14 14 12 12 12 12 11 11 11 11 11 11 11 11 12 11 11 11 11 11 11 11 11 11
15 15 15 15 15 15 15 15 15 15 15 15 15 15 14 14 14 14 14 14 14 14 13 12 12 12 11 11 11 11 11 11 11 11 11 11 11 11 11 11 11 11 10
15 15 15 15 15 15 15 15 15 15 15 15 15 15 14 14 14 14 14 14 13 13 13 13 12 12 11 11 11 11 11 11 11 11 11 11 11 11 11 11 11 11 10
15 15 15 15 15 15 15 15 15 15 15 15 15 15 14 14 14 14 14 14 13 13 13 13 12 12 11 11 11 11 11 11 11 11 11 11 11 11 11 11 10 10 10
15 15 15 15 15 15 15 15 15 15 15 15 15 15 15 14 14 14 14 14 14 13 13 13 13 12 11 11 11 11 11 11 11 10 10 10 10 10 10 10 10 10 10
14 14 14 14 15 15 15 14 14 14 15 15 15 15 15 14 14 14 14 14 14 13 13 13 13 12 12 11 11 11 11 11 10 10 10 10 10 10 10 10 10 10 10
14 14 14 14 14 14 14 14 14 14 14 14 14 14 14 14 14 14 14 14 14 13 13 13 13 12 12 11 11 11 11 10 10 10 10 10 10 10 10 10 9 9 9
14 14 14 14 14 14 14 14 14 14 14 14 14 14 14 14 14 14 14 14 14 14 13 13 13 13 12 12 11 11 11 10 10 10 10 10 10 10 10 9 9 9 9
14 14 14 14 14 14 14 14 14 14 14 14 14 14 14 14 14 14 14 13 13 13 13 13 13 13 12 12 11 11 11 11 10 10 10 10 9 9 9 9 9 9 9
13 13 13 14 14 14 14 14 14 14 14 14 14 14 14 14 14 14 13 13 13 13 13 13 12 12 12 12 11 11 11 10 10 9 9 9 9 9 9 9 9 9 9
13 13 13 13 13 14 14 13 13 13 13 14 14 14 14 14 14 13 13 13 13 13 13 12 12 12 12 11 11 11 11 10 10 10 9 9 9 9 9 9 9 9 8
13 13 13 13 13 13 13 13 13 13 13 13 13 13 13 13 13 13 13 13 13 13 12 12 12 12 11 11 11 11 11 10 10 9 9 9 9 9 9 9 9 8 8
Wind_Speed
3 3 3 4 5 6 6 5 6 6 6 7 8 9 8 8 8 8 9 10 11 11 11 10 11 12 13 13 13 13 13 13 13 13 13 13 13 13 13 13 12 12 11
5 4 4 4 4 6 7 6 6 6 6 6 7 7 7 8 8 8 9 10 11 12 12 12 12 12 13 13 13 13 14 13 14 14 14 14 14 14 14 13 13 13 12
6 6 4 3 4 7 8 7 7 7 6 6 6 6 6 7 7 8 9 9 10 12 12 13 13 13 13 13 14 14 14 14 14 14 15 15 15 15 14 14 14 14 13
8 7 4 4 6 7 7 5 4 5 5 5 5 4 5 5 6 7 8 9 9 9 12 14 14 14 14 13 13 13 14 14 14 14 15 14 14 14 14 14 14 14 13
9 7 5 5 8 6 5 5 4 5 5 5 5 4 4 4 4 6 6 7 8 9 10 12 13 14 13 13 13 13 14 14 14 14 14 14 14 14 14 14 14 14 14
9 8 6 6 7 5 5 5 5 4 4 4 6 5 4 4 4 4 4 5 7 8 9 10 10 10 12 12 12 13 13 13 13 13 13 13 13 13 14 14 14 14 14
9 7 5 5 5 5 6 6 5 5 4 4 5 5 5 5 5 3 4 5 5 6 8 9 9 9 9 11 12 12 13 13 13 12 13 13 13 13 13 13 14 15 15
8 7 6 5 5 5 6 6 5 3 2 2 3 3 3 4 4 4 3 3 4 5 6 7 8 8 8 8 9 11 12 12 12 12 12 12 13 13 13 14 14 15 15
6 7 7 6 6 6 6 6 6 5 3 1 2 4 4 2 0 3 3 3 3 3 4 6 7 7 7 7 8 9 11 11 11 11 11 11 12 12 13 13 14 14 14
5 6 7 7 6 5 6 6 5 4 5 3 1 1 2 4 3 1 2 3 3 3 3 5 6 6 7 7 7 9 10 10 11 11 11 11 11 12 13 13 14 14 14
3 4 6 6 6 5 5 5 5 4 4 4 3 2 2 2 3 3 2 1 3 2 2 4 5 5 6 6 6 8 9 10 10 11 11 11 12 12 12 12 13 14 14
1 3 5 5 5 5 5 5 5 5 4 4 3 3 3 3 3 3 3 2 2 1 2 3 3 4 4 5 6 8 9 9 9 10 11 11 12 12 12 12 12 13 13
2 3 4 4 4 5 5 5 4 4 4 4 4 3 3 3 4 4 5 3 2 1 1 2 2 3 4 5 5 7 8 8 9 9 10 10 11 11 11 11 12 12 12
3 3 4 4 4 5 5 5 3 4 4 4 5 4 3 3 4 5 5 5 4 1 1 0 1 2 4 5 5 6 6 7 8 8 9 9 10 10 9 10 11 11 11
2 3 4 4 4 4 5 5 4 4 4 4 4 4 3 3 4 4 4 5 5 4 2 2 1 1 3 5 5 6 6 6 7 7 8 8 8 9 8 9 9 10 10
3 3 3 3 4 4 4 5 4 4 4 4 4 4 3 3 3 4 4 4 4 4 3 3 2 2 4 5 5 6 5 5 6 7 7 7 8 8 8 8 8 9 9
3 4 4 4 4 5 5 5 5 5 5 5 4 5 5 4 4 4 4 4 4 4 4 2 1 2 3 4 4 5 5 5 5 6 6 7 7 8 8 8 8 9 9
4 4 4 4 4 4 5 6 6 6 6 6 6 5 5 5 5 4 4 5 4 4 5 5 2 2 2 4 4 4 4 4 4 5 5 6 6 6 7 7 7 8 8
3 3 4 4 4 4 4 5 5 6 6 6 6 6 6 6 5 4 5 5 4 4 4 5 4 2 2 2 2 2 3 2 3 3 4 4 4 4 5 5 6 6 7
3 3 3 4 4 4 4 4 4 5 5 6 6 6 6 8 8 7 6 6 6 5 5 6 4 3 2 2 3 2 1 0 0 2 2 2 2 3 3 3 4 4 4
3 3 3 3 3 3 4 4 4 5 5 5 4 5 6 8 10 8 7 7 8 6 6 5 5 3 3 3 3 3 2 1 0 0 1 1 1 1 1 0 1 2 2
3 3 3 3 4 4 6 7 6 4 5 5 5 5 5 6 9 10 11 12 12 10 8 6 5 5 5 4 4 4 3 2 1 1 2 0 1 1 2 2 1 1 1
4 3 3 3 4 5 7 7 8 5 5 6 6 5 5 5 6 6 8 11 11 12 13 10 8 8 7 7 7 5 4 4 3 3 3 1 1 2 4 3 3 2 2
5 5 4 4 3 5 7 7 8 5 5 5 6 6 7 6 7 8 7 6 5 6 9 8 8 8 7 8 9 7 6 4 1 2 4 2 2 2 3 3 3 3 2
5 5 4 5 4 5 6 7 8 4 4 4 5 6 7 7 10 11 9 8 6 4 6 8 8 8 9 11 11 6 5 4 2 2 2 3 2 1 1 2 3 3 3
6 5 5 5 6 5 7 8 8 5 4 4 3 5 8 9 11 13 10 9 8 6 5 5 4 5 7 9 12 9 7 5 3 2 3 3 2 2 1 2 2 3 3
Wind_Direction
130 123 113 106 105 106 100 92 87 85 86 86 91 93 86 81 73 67 66 74 80 83 85 84 84 84 80 77 74 70 68 66 64 62 60 58 56 55 54 52 52 52 54
134 127 113 106 110 114 108 101 98 93 88 88 83 87 88 87 82 76 69 68 75 76 76 78 80 80 79 76 73 70 68 66 64 63 61 58 56 54 54 53 51 50 52
132 127 121 119 119 119 110 100 93 91 92 88 81 80 83 84 86 82 76 70 70 72 75 76 76 78 79 76 73 70 67 65 62 61 60 58 56 55 54 53 52 51 50
139 127 128 128 126 118 112 108 100 92 87 86 82 75 72 76 80 83 80 75 72 71 73 75 74 75 76 75 73 71 68 66 62 61 61 58 57 55 53 53 53 52 51
139 131 134 130 127 116 113 118 104 106 104 96 91 77 64 63 71 86 82 78 78 76 75 75 72 70 73 73 73 72 69 66 64 63 62 59 57 55 54 55 55 54 51
134 130 129 127 123 116 110 113 113 101 104 106 96 76 56 51 59 73 84 83 82 82 79 73 68 68 70 71 70 71 69 67 64 63 61 59 57 56 56 54 54 53 51
131 131 134 128 128 129 135 130 118 105 95 103 89 63 40 40 48 56 68 73 76 84 79 73 69 65 64 64 67 69 68 68 66 65 64 62 60 58 57 56 56 54 51
136 141 141 142 138 132 130 130 126 116 124 123 115 99 59 23 20 33 46 75 73 76 76 76 75 69 63 59 63 66 65 65 66 65 66 64 60 59 59 59 57 55 51
144 145 146 147 150 148 150 152 148 141 158 197 148 137 138 173 18 13 29 55 68 71 70 73 77 75 69 62 61 62 64 61 62 63 65 64 61 60 60 60 58 55 52
148 148 151 152 158 155 158 168 163 155 152 172 181 98 139 147 144 111 13 23 56 74 74 83 79 78 75 69 67 66 65 62 62 61 64 66 65 62 60 60 58 55 53
158 155 158 160 165 167 170 168 160 163 161 164 165 139 104 96 113 134 140 29 37 35 62 83 86 81 81 80 75 74 70 65 64 63 62 63 63 61 60 61 60 58 57
180 174 162 167 171 172 179 176 173 172 173 165 161 154 153 149 156 140 147 147 112 31 43 59 80 86 85 86 86 84 78 73 70 68 65 63 62 59 58 60 60 60 60
205 203 177 175 178 181 181 173 170 180 178 171 172 173 172 168 152 142 137 141 130 90 51 31 52 98 99 95 90 90 84 79 75 72 69 68 66 62 58 59 58 58 59
210 201 187 183 182 178 176 166 171 188 180 179 182 174 169 175 158 154 151 143 128 93 62 199 14 97 109 110 104 99 90 87 84 79 74 69 67 65 62 60 58 57 58
211 200 190 189 191 185 178 170 180 186 174 176 177 171 167 177 164 163 153 152 147 154 191 206 184 173 132 119 118 112 102 97 92 87 81 75 69 65 63 63 62 59 55
205 192 193 197 201 195 183 175 183 186 175 180 174 164 166 167 164 158 159 153 141 147 168 196 193 178 153 135 126 119 114 106 96 91 85 80 73 68 64 65 63 61 57
202 199 200 202 205 202 189 183 194 187 184 187 181 171 177 167 164 169 160 154 146 135 144 169 137 135 132 130 123 119 108 105 99 94 93 87 81 75 70 68 67 65 62
207 204 199 198 201 198 195 194 200 194 189 190 190 178 185 175 168 170 166 167 160 149 144 150 142 136 145 151 138 133 127 114 106 97 97 92 88 83 77 75 74 69 65
207 201 193 193 197 197 196 199 198 194 193 193 191 191 191 171 176 174 168 166 160 150 135 145 150 139 126 140 117 121 125 123 118 105 96 85 83 84 85 81 81 76 70
197 195 200 203 196 192 192 189 186 188 190 192 193 195 192 183 183 175 171 168 156 142 137 141 143 141 139 142 134 135 116 56 135 122 112 93 76 67 76 81 85 84 76
204 197 194 212 210 197 198 188 184 186 188 190 191 196 194 186 180 175 171 167 157 151 148 149 152 143 157 162 180 171 161 159 345 146 113 94 97 55 14 43 92 103 94
192 187 196 200 206 214 207 191 183 181 185 188 196 200 198 186 185 182 175 168 165 164 166 163 168 178 191 185 167 163 149 147 227 228 145 235 187 264 252 234 196 171 168
191 186 202 203 210 219 206 194 187 183 188 196 195 192 197 192 176 177 175 170 174 175 170 169 176 189 187 187 171 168 177 178 196 187 143 208 252 252 249 246 225 217 216
196 198 205 207 213 221 204 192 187 183 184 189 193 193 189 184 179 170 163 162 173 185 185 179 185 191 187 180 179 179 176 158 133 172 160 189 217 242 258 249 247 232 226
201 204 202 203 208 225 209 190 178 181 186 195 200 195 186 184 180 166 162 166 173 196 194 189 185 180 177 175 167 142 143 149 189 218 185 176 199 209 262 266 256 233 222
206 200 203 208 210 218 214 197 182 181 189 203 209 202 192 187 180 171 172 172 180 191 172 166 165 174 173 176 174 171 169 166 170 210 203 173 180 154 253 286 266 242 237
Height
1540 1540 1541 1542 1542 1543 1543 1544 1544 1544 1545 1545 1545 1545 1545 1545 1545 1544 1544 1544 1544 1543 1543 1542 1542 1541 1541 1540 1540 1539 1538 1536 1535 1534 1533 1532 1531 1530 1528 1527 1526 1524 1523
1541 1541 1542 1543 1543 1544 1544 1545 1545 1546 1546 1546 1546 1546 1546 1546 1546 1546 1546 1545 1545 1545 1545 1544 1544 1543 1542 1542 1541 1540 1539 1538 1537 1536 1534 1533 1532 1531 1529 1528 1527 1525 1524
1541 1542 1542 1543 1544 1545 1546 1546 1546 1547 1547 1548 1548 1548 1548 1548 1548 1548 1548 1547 1547 1547 1547 1546 1546 1545 1544 1544 1543 1542 1541 1539 1538 1537 1536 1535 1533 1532 1531 1529 1528 1526 1525
1542 1542 1543 1544 1545 1546 1546 1547 1548 1548 1548 1549 1549 1549 1550 1550 1550 1550 1550 1549 1549 1549 1549 1548 1547 1547 1546 1546 1545 1544 1543 1541 1540 1539 1538 1536 1535 1534 1532 1531 1529 1527 1526
1542 1543 1544 1545 1546 1546 1547 1548 1549 1549 1549 1550 1550 1551 1551 1551 1551 1551 1551 1551 1551 1551 1550 1550 1549 1549 1548 1548 1547 1546 1544 1543 1542 1541 1540 1538 1537 1535 1534 1532 1531 1529 1527
1542 1543 1544 1545 1546 1547 1548 1549 1549 1550 1550 1551 1551 1552 1553 1553 1553 1553 1553 1553 1553 1552 1552 1552 1551 1551 1550 1550 1549 1548 1546 1545 1544 1543 1541 1540 1538 1537 1536 1534 1532 1530 1528
1543 1544 1545 1545 1546 1547 1548 1549 1550 1551 1551 1552 1552 1553 1554 1555 1555 1555 1555 1554 1554 1554 1554 1554 1553 1553 1552 1552 1551 1550 1549 1547 1546 1544 1543 1542 1540 1539 1537 1536 1534 1531 1529
1543 1544 1544 1545 1546 1547 1548 1549 1550 1551 1552 1553 1553 1554 1555 1557 1556 1556 1556 1556 1555 1555 1555 1555 1555 1555 1554 1553 1553 1552 1550 1549 1548 1546 1545 1543 1542 1541 1539 1537 1535 1533 1531
1542 1543 1544 1545 1546 1547 1548 1549 1550 1551 1552 1553 1554 1555 1555 1555 1557 1558 1557 1557 1557 1557 1557 1557 1556 1556 1556 1555 1554 1553 1552 1551 1549 1548 1547 1545 1544 1542 1541 1539 1537 1535 1532
1542 1543 1544 1545 1546 1547 1548 1549 1550 1551 1552 1553 1554 1554 1555 1555 1556 1557 1558 1558 1558 1558 1558 1558 1558 1557 1557 1556 1555 1555 1553 1552 1551 1550 1548 1547 1546 1544 1543 1541 1539 1537 1534
1541 1542 1543 1544 1545 1546 1547 1548 1549 1550 1551 1552 1553 1553 1554 1554 1555 1555 1557 1558 1559 1559 1559 1559 1559 1558 1558 1557 1557 1556 1555 1554 1553 1551 1550 1548 1547 1546 1544 1543 1541 1539 1537
1540 1541 1542 1543 1544 1545 1546 1547 1548 1549 1550 1551 1552 1553 1553 1554 1554 1555 1556 1557 1558 1559 1559 1560 1559 1559 1559 1558 1558 1557 1557 1555 1554 1553 1551 1550 1549 1548 1546 1545 1543 1542 1540
1539 1540 1541 1542 1543 1544 1545 1546 1547 1548 1549 1550 1551 1552 1553 1553 1554 1555 1555 1556 1557 1559 1559 1560 1560 1560 1560 1559 1559 1558 1558 1557 1556 1554 1553 1552 1551 1550 1548 1547 1545 1544 1542
1537 1538 1539 1540 1542 1543 1544 1545 1546 1547 1548 1549 1550 1551 1552 1552 1553 1554 1555 1555 1556 1558 1559 1559 1560 1560 1560 1560 1560 1559 1559 1558 1557 1556 1555 1554 1552 1551 1550 1548 1547 1545 1544
1536 1536 1537 1538 1540 1541 1542 1543 1544 1545 1546 1547 1548 1549 1550 1551 1552 1553 1554 1555 1556 1556 1558 1558 1559 1560 1560 1560 1560 1560 1559 1559 1558 1557 1556 1555 1554 1552 1551 1550 1548 1547 1545
1534 1535 1536 1536 1538 1539 1540 1541 1542 1544 1545 1546 1547 1548 1549 1550 1551 1552 1553 1554 1555 1556 1556 1557 1558 1559 1560 1560 1560 1560 1560 1559 1558 1558 1557 1556 1555 1553 1552 1551 1550 1548 1547
1532 1533 1534 1534 1535 1536 1538 1539 1540 1541 1543 1544 1545 1546 1547 1548 1549 1551 1552 1553 1554 1555 1555 1556 1557 1558 1559 1560 1560 1560 1560 1559 1559 1558 1557 1556 1555 1554 1553 1552 1550 1549 1548
1530 1531 1532 1533 1533 1534 1535 1536 1538 1539 1540 1541 1543 1544 1545 1547 1548 1549 1550 1551 1552 1553 1554 1555 1556 1557 1558 1559 1560 1560 1560 1559 1559 1558 1558 1557 1556 1555 1554 1552 1551 1550 1549
1528 1529 1529 1530 1531 1532 1533 1534 1535 1536 1538 1539 1541 1542 1543 1544 1546 1547 1548 1549 1551 1552 1553 1554 1554 1556 1557 1558 1559 1559 1559 1559 1559 1558 1558 1557 1556 1555 1554 1553 1552 1551 1550
1526 1526 1527 1528 1528 1529 1530 1531 1533 1534 1535 1537 1538 1539 1541 1542 1543 1545 1546 1547 1548 1550 1551 1552 1553 1554 1555 1556 1557 1557 1558 1558 1558 1558 1557 1557 1556 1555 1554 1553 1552 1551 1550
1524 1524 1525 1525 1526 1527 1527 1528 1530 1531 1532 1534 1535 1536 1538 1539 1541 1542 1544 1545 1546 1547 1549 1550 1551 1552 1553 1553 1554 1555 1556 1556 1556 1557 1556 1556 1556 1555 1554 1553 1552 1551 1550
1521 1521 1522 1522 1523 1524 1525 1526 1527 1528 1529 1531 1532 1533 1535 1536 1538 1540 1541 1543 1544 1545 1546 1547 1548 1549 1550 1551 1552 1553 1554 1554 1554 1556 1555 1555 1555 1554 1553 1553 1552 1551 1550
1517 1518 1519 1519 1520 1521 1522 1523 1524 1525 1526 1527 1528 1530 1531 1533 1535 1537 1538 1540 1541 1543 1544 1545 1546 1547 1548 1549 1550 1551 1552 1552 1553 1554 1553 1553 1553 1553 1552 1552 1551 1550 1549
1513 1514 1515 1516 1516 1517 1518 1519 1520 1522 1523 1524 1525 1527 1528 1530 1532 1533 1535 1537 1538 1540 1541 1542 1544 1545 1546 1547 1548 1549 1550 1551 1551 1552 1552 1551 1551 1551 1551 1550 1549 1549 1548
1509 1510 1511 1512 1512 1513 1515 1516 1517 1518 1519 1520 1522 1523 1525 1527 1528 1530 1532 1533 1535 1536 1538 1540 1541 1543 1544 1545 1546 1547 1547 1548 1548 1549 1549 1549 1549 1549 1548 1548 1547 1547 1546
1504 1506 1506 1508 1508 1509 1511 1512 1514 1514 1515 1516 1518 1519 1521 1523 1525 1527 1528 1530 1531 1533 1535 1536 1538 1540 1541 1542 1543 1543 1544 1545 1545 1546 1547 1547 1546 1546 1546 1546 1545 1545 1544